DW8501 Madrid ES current weather conditions

sailwx.info

Air temperature 12.8° C
Dewpoint 9.4° C

Last reported at 2016-May-30 00:55 UTC.
Time now 2016-May-30 01:07 UTC

Location: N 40°27' W 003°35'.
View on Google Maps.

See reports from other nearby stations

  
Tides and Currents Weather Stations Pressure Air Temp Water Temp Dewpoint Dewpoint Depression Visibility Wind Speed Wind Dir Waves Ship Positions
date/time (UTC)wind fromknots sea level pressurealtimeterstation pressurevisibilityair tempwater tempwave heightnotes
2016-May-30 00:55 12.8
2016-May-30 00:50 197 0 gusting 1 12.8
2016-May-30 00:45 251 1 gusting 1 12.8
2016-May-30 00:40 270 0 gusting 1 12.8
2016-May-30 00:35 12.8
2016-May-30 00:30 13.3
2016-May-30 00:25 13.3
2016-May-30 00:20 176 1 gusting 5 13.3
2016-May-30 00:15 177 2 gusting 5 13.3
2016-May-30 00:10 208 1 gusting 2 13.9
2016-May-30 00:05 271 1 gusting 3 13.9
2016-May-30 00:00 332 1 gusting 3 13.9
2016-May-29 23:55 256 0 gusting 2 13.9
2016-May-29 23:50 198 0 gusting 2 13.9
2016-May-29 23:45 159 0 gusting 3 13.9
2016-May-29 23:40 217 1 gusting 3 13.9
2016-May-29 23:35 257 2 gusting 4 13.9
2016-May-29 23:30 256 3 gusting 4 14.4
2016-May-29 23:25 242 3 gusting 4 14.4
2016-May-29 23:20 316 3 gusting 3 14.4
2016-May-29 23:15 341 0 gusting 5 14.4
2016-May-29 23:10 343 3 gusting 5 14.4
2016-May-29 23:05 335 3 gusting 5 14.4
2016-May-29 23:00 313 2 gusting 5 14.4
2016-May-29 22:55 14.4
2016-May-29 22:50 277 2 gusting 8 14.4
2016-May-29 22:45 272 2 gusting 8 14.4
2016-May-29 22:40 297 6 gusting 8 15.0
2016-May-29 22:35 331 3 gusting 6 15.0
2016-May-29 22:30 323 1 gusting 4 15.0
2016-May-29 22:25 296 1 gusting 6 15.0
2016-May-29 22:20 301 1 gusting 7 15.0
2016-May-29 22:15 291 3 gusting 7 15.0
2016-May-29 22:10 274 2 gusting 7 15.0
2016-May-29 22:05 280 5 gusting 10 15.0
2016-May-29 22:00 293 5 gusting 13 15.0
2016-May-29 21:55 289 7 gusting 13 15.0
2016-May-29 21:50 280 6 gusting 13 15.0
2016-May-29 21:45 277 6 gusting 13 15.0
2016-May-29 21:40 269 6 gusting 13 15.0
2016-May-29 21:35 268 6 gusting 13 15.0
2016-May-29 21:30 282 6 gusting 10 15.0
2016-May-29 21:25 294 4 gusting 9 15.0
2016-May-29 21:20 288 4 gusting 9 15.0
2016-May-29 21:15 289 4 gusting 9 15.0
2016-May-29 21:10 301 4 gusting 7 15.6
2016-May-29 21:05 302 3 gusting 9 15.6
2016-May-29 21:00 286 5 gusting 9 15.6
2016-May-29 20:55 295 3 gusting 10 15.6
2016-May-29 20:50 282 2 gusting 10 15.6
2016-May-29 20:45 262 6 gusting 10 15.6
2016-May-29 20:40 267 5 gusting 10 15.6
2016-May-29 20:35 273 4 gusting 9 15.6
2016-May-29 20:30 267 2 gusting 6 15.6
2016-May-29 20:25 266 6 gusting 9 15.6
2016-May-29 20:20 250 6 gusting 9 15.6
2016-May-29 20:15 247 6 gusting 11 15.6
2016-May-29 20:10 256 4 gusting 11 15.6
2016-May-29 20:05 250 7 gusting 11 15.6
2016-May-29 20:00 265 7 gusting 10 15.0
2016-May-29 19:55 265 6 gusting 11 15.0
2016-May-29 19:50 263 6 gusting 11 15.0
2016-May-29 19:45 286 3 gusting 9 15.0
2016-May-29 19:40 296 4 gusting 13 15.0
2016-May-29 19:35 288 5 gusting 13 15.0
2016-May-29 19:30 271 8 gusting 13 15.0
2016-May-29 19:25 273 6 gusting 13 15.0
2016-May-29 19:20 285 4 gusting 11 15.0
2016-May-29 19:15 303 6 gusting 11 15.6
2016-May-29 19:10 307 3 gusting 11 15.6
2016-May-29 19:05 296 8 gusting 14 15.6
2016-May-29 19:00 302 3 gusting 14 15.6
2016-May-29 18:55 305 5 gusting 16 15.6
2016-May-29 18:50 301 6 gusting 16 16.1
2016-May-29 18:45 303 7 gusting 16 16.1
2016-May-29 18:40 303 4 gusting 16 16.1
2016-May-29 18:35 308 6 gusting 15 16.7
2016-May-29 18:30 322 6 gusting 15 16.7
2016-May-29 18:25 320 6 gusting 13 16.7
2016-May-29 18:20 292 6 gusting 22 17.2
2016-May-29 18:15 281 8 gusting 23 17.2
2016-May-29 18:10 292 10 gusting 23 17.2
2016-May-29 18:05 298 12 gusting 19 17.8
2016-May-29 18:00 303 9 gusting 18 17.8
2016-May-29 17:55 299 6 gusting 17 17.8
2016-May-29 17:50 304 11 gusting 22 17.8
2016-May-29 17:45 301 7 gusting 22 17.8
2016-May-29 17:40 290 13 gusting 18 17.8
2016-May-29 17:35 294 11 gusting 14 17.8
2016-May-29 17:30 278 9 gusting 19 18.3
2016-May-29 17:25 285 9 gusting 19 18.3
2016-May-29 17:20 304 8 gusting 22 18.3
2016-May-29 17:15 306 12 gusting 22 17.8
2016-May-29 17:10 303 9 gusting 19 17.8
2016-May-29 17:05 308 9 gusting 19 17.8
2016-May-29 17:00 317 9 gusting 22 17.8
2016-May-29 16:55 311 7 gusting 22 17.8
2016-May-29 16:50 302 11 gusting 23 17.8
2016-May-29 16:45 298 14 gusting 23 17.8
2016-May-29 16:40 282 8 gusting 26 17.8
2016-May-29 16:35 270 12 gusting 26 17.8
2016-May-29 16:30 285 15 gusting 26 18.3
2016-May-29 16:25 312 9 gusting 18 18.3
2016-May-29 16:20 315 6 gusting 19 18.3
2016-May-29 16:15 312 7 gusting 19 17.8
2016-May-29 16:10 340 7 gusting 19 18.3
2016-May-29 16:05 343 13 gusting 19 18.3
2016-May-29 16:00 317 13 gusting 20 18.3
2016-May-29 15:55 317 13 gusting 21 17.8
2016-May-29 15:50 312 11 gusting 23 18.3
2016-May-29 15:45 294 18 gusting 28 18.3
2016-May-29 15:40 296 18 gusting 28 18.3
2016-May-29 15:35 301 19 gusting 26 19.4
2016-May-29 15:30 288 13 gusting 26 19.4
2016-May-29 15:25 288 22 gusting 26 19.4
2016-May-29 15:20 269 21 gusting 24 18.9
2016-May-29 15:15 264 12 gusting 22 18.9
2016-May-29 15:10 272 14 gusting 24 18.9
2016-May-29 15:05 279 16 gusting 24 18.9
2016-May-29 15:00 256 17 gusting 21 18.9
2016-May-29 14:55 229 13 gusting 21 18.9
2016-May-29 14:50 262 17 gusting 19 19.4
2016-May-29 14:45 298 14 gusting 19 19.4
2016-May-29 14:40 289 10 gusting 18 20.0
2016-May-29 14:35 257 9 gusting 18 19.4
2016-May-29 14:30 251 13 gusting 18 19.4
2016-May-29 14:25 289 9 gusting 19 19.4
2016-May-29 14:20 309 12 gusting 19 18.9
2016-May-29 14:15 288 12 gusting 19 18.9
2016-May-29 14:10 252 6 gusting 19 18.3
2016-May-29 14:05 258 14 gusting 21 18.3
2016-May-29 14:00 270 14 gusting 21 18.3
2016-May-29 13:55 270 10 gusting 19 18.3
2016-May-29 13:50 264 10 gusting 16 18.3
2016-May-29 13:45 271 6 gusting 19 17.8
2016-May-29 13:40 265 13 gusting 21 17.8
2016-May-29 13:35 270 14 gusting 21 18.3
2016-May-29 13:30 263 15 gusting 21 17.8
2016-May-29 13:25 249 11 gusting 18 17.8
2016-May-29 13:20 289 13 gusting 14 17.8
2016-May-29 13:15 284 6 gusting 18 17.8
2016-May-29 13:10 269 12 gusting 18 17.8
2016-May-29 13:05 290 8 gusting 14 17.8
2016-May-29 13:00 273 6 gusting 14 17.8
2016-May-29 12:55 269 9 gusting 14 17.2
2016-May-29 12:50 299 13 gusting 14 17.2
2016-May-29 12:45 307 7 gusting 13 17.2
2016-May-29 12:40 297 8 gusting 12 17.2
2016-May-29 12:35 322 1 gusting 5 16.7
2016-May-29 12:30 312 1 gusting 6 15.6
2016-May-29 12:25 334 1 gusting 12 15.6
2016-May-29 12:20 309 5 gusting 12 15.6
2016-May-29 12:15 279 6 gusting 13 15.6
2016-May-29 12:10 262 4 gusting 13 16.1
2016-May-29 12:05 254 12 gusting 13 17.8
2016-May-29 12:00 271 12 gusting 15 17.8
2016-May-29 11:55 277 5 gusting 18 17.2
2016-May-29 11:50 257 8 gusting 18 16.7
2016-May-29 11:45 254 13 gusting 18 17.2
2016-May-29 11:40 276 10 gusting 15 16.7
2016-May-29 11:35 272 10 gusting 15 16.7
2016-May-29 11:30 250 12 gusting 15 16.1
2016-May-29 11:25 252 9 gusting 13 16.7
2016-May-29 11:20 239 8 gusting 16 16.7
2016-May-29 11:15 228 9 gusting 16 16.1
2016-May-29 11:10 236 11 gusting 13 16.1
2016-May-29 11:05 232 13 gusting 13 16.1
2016-May-29 11:00 228 8 gusting 13 15.6
2016-May-29 10:55 240 8 gusting 15 15.6
2016-May-29 10:50 253 8 gusting 18 15.6
2016-May-29 10:45 252 14 gusting 18 15.6
2016-May-29 10:40 259 5 gusting 14 16.1
2016-May-29 10:35 263 9 gusting 14 15.6
2016-May-29 10:30 244 11 gusting 16 15.6
2016-May-29 10:25 227 11 gusting 16 15.6
2016-May-29 10:20 221 9 gusting 12 15.6
2016-May-29 10:15 233 9 gusting 13 15.6
2016-May-29 10:10 243 10 gusting 14 15.6
2016-May-29 10:05 253 6 gusting 16 15.6
2016-May-29 10:00 254 4 gusting 17 15.0
2016-May-29 09:55 257 13 gusting 17 15.6
2016-May-29 09:50 256 13 gusting 17 15.6
2016-May-29 09:45 250 11 gusting 16 16.1
2016-May-29 09:40 240 10 gusting 15 16.7
2016-May-29 09:35 242 9 gusting 15 15.6
2016-May-29 09:30 258 13 gusting 15 15.6
2016-May-29 09:25 247 9 gusting 16 15.6
2016-May-29 09:20 246 8 gusting 16 15.6
2016-May-29 09:15 254 8 gusting 14 15.6
2016-May-29 09:10 245 9 gusting 17 15.0
2016-May-29 09:05 264 9 gusting 17 15.0
2016-May-29 09:00 301 13 gusting 14 15.0
2016-May-29 08:55 286 11 gusting 14 15.0
2016-May-29 08:50 273 12 gusting 14 15.0
2016-May-29 08:45 273 4 gusting 17 14.4
2016-May-29 08:40 256 6 gusting 17 14.4
2016-May-29 08:35 268 7 gusting 15 14.4
2016-May-29 08:30 264 9 gusting 17 14.4
2016-May-29 08:25 277 11 gusting 17 13.9
2016-May-29 08:20 300 13 gusting 15 13.9
2016-May-29 08:15 296 10 gusting 19 13.3
2016-May-29 08:10 293 10 gusting 19 13.3
2016-May-29 08:05 268 13 gusting 17 13.3
2016-May-29 08:00 274 11 gusting 16 13.3
2016-May-29 07:55 290 13 gusting 16 13.3
2016-May-29 07:50 270 6 gusting 16 13.3
2016-May-29 07:45 261 13 gusting 16 12.8
2016-May-29 07:40 278 10 gusting 17 12.8
2016-May-29 07:35 295 9 gusting 17 12.8
2016-May-29 07:30 290 12 gusting 14 12.8
2016-May-29 07:25 282 7 gusting 15 12.8
2016-May-29 07:20 274 10 gusting 15 12.8
2016-May-29 07:15 269 13 gusting 18 12.8
2016-May-29 07:10 263 10 gusting 18 12.2
2016-May-29 07:05 278 13 gusting 17 12.8
2016-May-29 07:00 291 9 gusting 18 12.2
2016-May-29 06:55 290 11 gusting 18 12.2
2016-May-29 06:50 271 10 gusting 16 12.2
2016-May-29 06:45 265 9 gusting 16 12.2
2016-May-29 06:40 258 13 gusting 14 12.2
2016-May-29 06:35 245 9 gusting 18 12.2
2016-May-29 06:30 255 6 gusting 18 12.2
2016-May-29 06:25 260 12 gusting 18 12.2
2016-May-29 06:20 251 9 gusting 13 12.2
2016-May-29 06:15 259 7 gusting 13 12.2
2016-May-29 06:10 259 6 gusting 13 12.2
2016-May-29 06:05 270 7 gusting 13 12.2
2016-May-29 06:00 284 7 gusting 13 12.2
2016-May-29 05:55 257 8 gusting 18 12.2
2016-May-29 05:50 248 9 gusting 18 12.2
2016-May-29 05:45 261 12 gusting 18 12.2
2016-May-29 05:40 292 9 gusting 14 12.2
2016-May-29 05:35 286 9 gusting 14 12.2
2016-May-29 05:30 264 9 gusting 16 12.2
2016-May-29 05:25 275 6 gusting 16 12.2
2016-May-29 05:20 287 7 gusting 14 12.2
2016-May-29 05:15 291 10 gusting 14 12.2
2016-May-29 05:10 288 13 gusting 19 12.2
2016-May-29 05:05 274 9 gusting 19 12.2
2016-May-29 05:00 270 7 gusting 17 12.2
2016-May-29 04:55 283 9 gusting 15 12.2
2016-May-29 04:50 303 8 gusting 16 12.2
2016-May-29 04:45 303 9 gusting 16 12.2
2016-May-29 04:40 280 6 gusting 16 12.2
2016-May-29 04:35 278 9 gusting 17 12.2
2016-May-29 04:30 270 8 gusting 17 12.2
2016-May-29 04:25 270 9 gusting 17 12.2
2016-May-29 04:11 262 10 gusting 14 12.2
2016-May-29 04:06 251 9 gusting 13 12.2
2016-May-29 04:01 273 7 gusting 13 12.2
2016-May-29 03:56 287 8 gusting 14 12.2
2016-May-29 03:51 278 8 gusting 14 12.2
2016-May-29 03:46 270 9 gusting 13 12.2
2016-May-29 03:41 270 8 gusting 13 12.2
2016-May-29 03:36 296 6 gusting 13 12.2
2016-May-29 03:31 292 9 gusting 13 12.2
2016-May-29 03:26 295 8 gusting 13 12.2
2016-May-29 03:21 284 7 gusting 13 12.2
2016-May-29 03:16 278 8 gusting 16 12.2
2016-May-29 03:11 295 11 gusting 16 12.2
2016-May-29 03:06 289 12 gusting 14 12.2
2016-May-29 03:01 267 10 gusting 14 12.2
2016-May-29 02:56 263 6 gusting 15 12.2
2016-May-29 02:51 279 9 gusting 19 12.2
2016-May-29 02:46 271 9 gusting 19 12.2
2016-May-29 02:41 280 9 gusting 16 12.2
2016-May-29 02:36 290 6 gusting 13 12.2
2016-May-29 02:31 272 11 gusting 13 12.2
2016-May-29 02:26 259 7 gusting 13 12.2
2016-May-29 02:21 252 9 gusting 13 12.2
2016-May-29 02:16 272 11 gusting 13 12.2
2016-May-29 02:11 277 7 gusting 10 12.2
2016-May-29 02:06 279 7 gusting 10 12.2
2016-May-29 02:01 279 7 gusting 10 12.2
2016-May-29 01:56 273 6 gusting 11 12.2
2016-May-29 01:51 283 6 gusting 13 12.2
2016-May-29 01:46 266 9 gusting 13 12.2
2016-May-29 01:41 263 7 gusting 14 12.2
2016-May-29 01:36 287 9 gusting 17 12.2
2016-May-29 01:31 295 8 gusting 17 12.2
2016-May-29 01:26 274 13 gusting 15 12.2
2016-May-29 01:21 254 8 gusting 17 12.2
2016-May-29 01:16 262 7 gusting 17 12.2
2016-May-29 01:11 254 8 gusting 13 12.2
2016-May-29 01:06 265 6 gusting 14 12.2
2016-May-29 01:01 283 10 gusting 14 12.2
2016-May-29 00:56 300 10 gusting 16 12.8
2016-May-29 00:51 306 9 gusting 19 12.8
2016-May-29 00:46 292 10 gusting 19 12.8
2016-May-29 00:41 276 11 gusting 17 12.8
2016-May-29 00:36 260 11 gusting 14 12.8
2016-May-29 00:31 256 6 gusting 13 12.8
2016-May-29 00:26 266 10 gusting 13 12.8
2016-May-29 00:21 286 6 gusting 13 12.8
2016-May-29 00:16 293 6 gusting 18 12.8
2016-May-29 00:11 288 6 gusting 18 12.8
2016-May-29 00:06 292 7 gusting 11 12.8
2016-May-29 00:01 289 7 gusting 12 12.8
2016-May-28 23:56 279 7 gusting 12 12.8
2016-May-28 23:51 276 3 gusting 11 12.8
2016-May-28 23:46 280 6 gusting 11 12.8
2016-May-28 23:41 280 7 gusting 11 12.8
2016-May-28 23:36 280 4 gusting 11 12.8
2016-May-28 23:31 281 6 gusting 11 13.3
2016-May-28 23:26 283 6 gusting 9 13.3
2016-May-28 23:21 288 3 gusting 11 13.3
2016-May-28 23:16 289 5 gusting 11 13.3
2016-May-28 23:11 270 7 gusting 13 13.3
2016-May-28 23:06 277 6 gusting 14 13.3
2016-May-28 23:01 288 6 gusting 18 13.3
2016-May-28 22:56 272 6 gusting 18 13.3
2016-May-28 22:51 300 9 gusting 14 13.3
2016-May-28 22:46 295 10 gusting 16 13.3
2016-May-28 22:41 273 6 gusting 16 13.9
2016-May-28 22:36 282 8 gusting 13 13.9
2016-May-28 22:31 277 6 gusting 14 13.9
2016-May-28 22:26 285 8 gusting 18 13.9
2016-May-28 22:21 281 9 gusting 19 13.9
2016-May-28 22:16 307 13 gusting 21 13.9
2016-May-28 22:11 348 15 gusting 21 13.9
2016-May-28 22:06 345 11 gusting 18 13.3
2016-May-28 22:01 291 11 gusting 18 13.3
2016-May-28 21:56 275 9 gusting 16 13.3
2016-May-28 21:51 286 14 gusting 16 13.3
2016-May-28 21:46 288 12 gusting 16 13.3
2016-May-28 21:41 291 10 gusting 16 13.3
2016-May-28 21:36 272 9 gusting 14 13.3
2016-May-28 21:31 255 9 gusting 13 13.3
2016-May-28 21:26 250 7 gusting 12 13.3
2016-May-28 21:21 266 6 gusting 13 13.3
2016-May-28 21:16 275 9 gusting 13 13.3
2016-May-28 21:11 280 7 gusting 13 13.3
2016-May-28 21:06 270 8 gusting 13 13.3
2016-May-28 21:01 271 6 gusting 13 13.3
2016-May-28 20:56 284 8 gusting 14 13.3
2016-May-28 20:51 281 10 gusting 14 13.3
2016-May-28 20:46 277 9 gusting 14 13.3
2016-May-28 20:41 273 9 gusting 14 13.3
2016-May-28 20:36 278 8 gusting 13 13.9
2016-May-28 20:31 281 6 gusting 9 13.9
2016-May-28 20:26 287 3 gusting 8 13.9
2016-May-28 20:21 293 3 gusting 8 13.3
2016-May-28 20:16 281 5 gusting 9 13.3
2016-May-28 20:11 299 6 gusting 13 13.9
2016-May-28 20:06 304 7 gusting 16 13.9
2016-May-28 20:01 296 11 gusting 16 13.9
2016-May-28 19:56 291 9 gusting 16 13.9
2016-May-28 19:51 264 6 gusting 18 13.9
2016-May-28 19:46 267 10 gusting 23 13.9
2016-May-28 19:41 270 15 gusting 23 13.9
2016-May-28 19:36 270 10 gusting 14 13.9
2016-May-28 19:31 289 8 gusting 23 13.9
2016-May-28 19:26 280 9 gusting 23 13.9
2016-May-28 19:21 294 10 gusting 19 13.9
2016-May-28 19:16 318 13 gusting 19 13.9
2016-May-28 19:11 292 8 gusting 26 13.9
2016-May-28 19:06 292 13 gusting 34 14.4
2016-May-28 19:01 299 19 gusting 34 15.6
2016-May-28 18:56 278 25 gusting 39 16.1
2016-May-28 18:51 260 18 gusting 39 16.1
2016-May-28 18:46 283 6 gusting 23 16.7
2016-May-28 18:41 281 18 gusting 23 16.1
2016-May-28 18:36 262 15 gusting 26 16.1
2016-May-28 18:31 263 16 gusting 26 16.1
2016-May-28 18:26 269 18 gusting 26 16.1
2016-May-28 18:21 275 14 gusting 22 16.1
2016-May-28 18:16 274 15 gusting 19 16.1
2016-May-28 18:11 254 13 gusting 19 16.1
2016-May-28 18:06 232 11 gusting 19 16.1
2016-May-28 18:01 242 13 gusting 19 16.7
2016-May-28 17:56 263 16 gusting 19 16.7
2016-May-28 17:51 269 10 gusting 19 16.7
2016-May-28 17:46 258 9 gusting 19 16.7
2016-May-28 17:41 234 14 gusting 21 16.7
2016-May-28 17:36 251 14 gusting 21 17.2
2016-May-28 17:31 269 15 gusting 19 17.8
2016-May-28 17:26 243 11 gusting 21 17.8
2016-May-28 17:21 234 7 gusting 21 17.8
2016-May-28 17:16 259 18 gusting 21 17.2
2016-May-28 17:11 285 12 gusting 20 17.2
2016-May-28 17:06 287 9 gusting 20 17.2
2016-May-28 17:01 301 17 gusting 20 17.2
2016-May-28 16:56 274 12 gusting 18 17.2
2016-May-28 16:51 224 13 gusting 17 16.7
2016-May-28 16:46 217 7 gusting 16 16.7
2016-May-28 16:41 229 9 gusting 14 16.1
2016-May-28 16:36 231 13 gusting 14 16.1
2016-May-28 16:31 227 12 gusting 14 16.1
2016-May-28 16:26 223 10 gusting 14 15.6
2016-May-28 16:21 219 10 gusting 15 16.1
2016-May-28 16:16 221 9 gusting 15 16.1
2016-May-28 16:11 231 7 gusting 15 16.1
2016-May-28 16:06 234 12 gusting 14 16.1
2016-May-28 16:01 242 6 gusting 13 16.1
2016-May-28 15:56 257 12 gusting 13 16.1
2016-May-28 15:51 250 6 gusting 25 15.6
2016-May-28 15:46 234 6 gusting 25 15.6
2016-May-28 15:41 230 19 gusting 25 15.6
2016-May-28 15:36 243 11 gusting 17 15.6
2016-May-28 15:31 279 9 gusting 16 15.6
2016-May-28 15:26 271 10 gusting 17 15.6
2016-May-28 15:21 246 13 gusting 17 15.0
2016-May-28 15:16 255 13 gusting 18 15.0
2016-May-28 15:11 260 13 gusting 18 14.4
2016-May-28 15:06 262 15 gusting 18 14.4
2016-May-28 15:01 275 6 gusting 18 14.4
2016-May-28 14:56 283 13 gusting 18 14.4
2016-May-28 14:51 268 12 gusting 19 14.4
2016-May-28 14:46 262 14 gusting 19 14.4
2016-May-28 14:41 282 9 gusting 19 14.4
2016-May-28 14:36 303 14 gusting 21 14.4
2016-May-28 14:31 293 13 gusting 23 14.4
2016-May-28 14:26 276 18 gusting 23 14.4
2016-May-28 14:21 273 9 gusting 14 14.4
2016-May-28 14:16 275 12 gusting 18 13.9
2016-May-28 14:11 291 6 gusting 18 13.9
2016-May-28 14:06 304 11 gusting 14 13.9
2016-May-28 14:01 302 6 gusting 14 13.3
2016-May-28 13:56 296 3 gusting 18 13.3
2016-May-28 13:51 290 9 gusting 31 12.8
2016-May-28 13:46 267 13 gusting 39 13.3
2016-May-28 13:41 246 16 gusting 39 14.4
2016-May-28 13:36 254 24 gusting 32 14.4
2016-May-28 13:31 261 13 gusting 23 13.9
2016-May-28 13:26 247 9 gusting 23 13.9
2016-May-28 13:21 271 16 gusting 23 15.0
2016-May-28 13:16 294 6 gusting 11 14.4
2016-May-28 13:11 272 6 gusting 13 14.4
2016-May-28 13:06 283 6 gusting 23 13.9
2016-May-28 13:01 300 7 gusting 25 13.9
2016-May-28 12:56 310 19 gusting 47 13.9
2016-May-28 12:51 308 18 gusting 47 15.0
2016-May-28 12:46 281 35 gusting 47 17.8
2016-May-28 12:41 257 11 gusting 22 19.4
2016-May-28 12:36 254 13 gusting 26 20.0
2016-May-28 12:31 240 19 gusting 26 20.6
2016-May-28 12:26 244 13 gusting 21 20.6
2016-May-28 12:21 255 12 gusting 19 20.0
2016-May-28 12:16 268 10 gusting 18 20.6
2016-May-28 12:11 244 13 gusting 19 20.6
2016-May-28 12:06 240 13 gusting 20 20.0
2016-May-28 12:01 262 13 gusting 22 19.4
2016-May-28 11:56 262 19 gusting 22 19.4
2016-May-28 11:51 264 10 gusting 21 19.4
2016-May-28 11:46 264 16 gusting 23 19.4
2016-May-28 11:41 282 14 gusting 23 19.4
2016-May-28 11:36 306 20 gusting 23 18.9
2016-May-28 11:31 248 17 gusting 21 19.4
2016-May-28 11:26 233 19 gusting 21 19.4
2016-May-28 11:21 255 9 gusting 18 19.4
2016-May-28 11:16 259 14 gusting 18 20.0
2016-May-28 11:11 281 13 gusting 18 19.4
2016-May-28 11:06 305 9 gusting 18 19.4
2016-May-28 11:01 257 7 gusting 17 20.0
2016-May-28 10:56 257 7 gusting 19 20.0
2016-May-28 10:51 271 14 gusting 20 19.4
2016-May-28 10:46 271 13 gusting 20 19.4
2016-May-28 10:41 284 9 gusting 20 19.4
2016-May-28 10:36 279 9 gusting 19 20.0
2016-May-28 10:31 261 18 gusting 20 19.4
2016-May-28 10:26 245 13 gusting 20 19.4
2016-May-28 10:21 243 13 gusting 19 20.0
2016-May-28 10:16 257 18 gusting 20 19.4
2016-May-28 10:11 291 12 gusting 24 19.4
2016-May-28 10:06 303 16 gusting 24 18.9
2016-May-28 10:01 257 10 gusting 21 18.9
2016-May-28 09:56 250 12 gusting 23 18.9
2016-May-28 09:51 281 17 gusting 23 18.3
2016-May-28 09:46 300 12 gusting 23 18.3
2016-May-28 09:41 275 14 gusting 23 18.9
2016-May-28 09:36 253 17 gusting 23 18.9
2016-May-28 09:31 276 13 gusting 23 18.3
2016-May-28 09:26 257 9 gusting 19 18.9
2016-May-28 09:21 260 9 gusting 19 18.3
2016-May-28 09:16 286 12 gusting 19 18.3
2016-May-28 09:11 269 9 gusting 17 18.3
2016-May-28 09:06 253 10 gusting 17 18.3
2016-May-28 09:01 266 6 gusting 14 18.3
2016-May-28 08:56 277 6 gusting 12 18.9
2016-May-28 08:51 276 4 gusting 14 18.3
2016-May-28 08:46 293 6 gusting 14 17.8
2016-May-28 08:41 297 8 gusting 14 17.8
2016-May-28 08:36 278 6 gusting 14 17.8
2016-May-28 08:31 254 13 gusting 14 17.8
2016-May-28 08:26 253 11 gusting 14 17.8
2016-May-28 08:21 248 9 gusting 13 17.8
2016-May-28 08:16 230 8 gusting 13 17.2
2016-May-28 08:11 228 9 gusting 14 17.2
2016-May-28 08:06 230 10 gusting 14 17.2
2016-May-28 08:01 228 7 gusting 13 16.7
2016-May-28 07:56 222 8 gusting 11 16.7
2016-May-28 07:51 233 6 gusting 11 16.1
2016-May-28 07:46 229 6 gusting 11 15.6
2016-May-28 07:41 214 6 gusting 11 15.6
2016-May-28 07:36 228 9 gusting 11 16.1
2016-May-28 07:31 204 9 gusting 10 17.2
2016-May-28 07:26 172 4 gusting 10 17.8
2016-May-28 07:21 204 4 gusting 7 17.8
2016-May-28 07:16 208 2 gusting 7 17.8
2016-May-28 07:11 191 6 gusting 7 18.3
2016-May-28 07:06 155 3 gusting 4 19.4
2016-May-28 07:01 106 1 gusting 2 19.4
2016-May-28 06:56 18.9
2016-May-28 06:51 123 0 gusting 3 18.3
2016-May-28 06:46 114 1 gusting 3 18.3
2016-May-28 06:41 124 0 gusting 2 18.3
2016-May-28 06:36 120 1 gusting 2 17.8
2016-May-28 06:31 17.8
2016-May-28 06:26 16.7
2016-May-28 06:21 125 1 gusting 5 16.1
2016-May-28 06:16 125 3 gusting 4 16.7
2016-May-28 06:11 119 1 gusting 3 17.2
2016-May-28 06:06 101 0 gusting 3 16.7
2016-May-28 06:01 090 1 gusting 3 16.7
2016-May-28 05:56 16.7
2016-May-28 05:51 126 0 gusting 1 15.6
2016-May-28 05:46 15.0
2016-May-28 05:41 15.0
2016-May-28 05:36 122 1 gusting 2 14.4
2016-May-28 05:31 14.4
2016-May-28 05:26 075 1 gusting 4 13.9
2016-May-28 05:21 047 2 gusting 4 13.9
2016-May-28 05:16 013 2 gusting 3 13.3
2016-May-28 05:11 354 2 gusting 3 12.8
2016-May-28 05:06 352 1 gusting 3 12.8
2016-May-28 05:01 009 1 gusting 2 12.8
2016-May-28 04:56 12.8
2016-May-28 04:51 12.8
2016-May-28 04:46 12.8
2016-May-28 04:41 13.3
2016-May-28 04:36 13.3
2016-May-28 04:31 13.3
2016-May-28 04:26 105 0 gusting 1 13.3
2016-May-28 04:21 13.3
2016-May-28 04:16 13.3
2016-May-28 04:11 13.3
2016-May-28 04:06 13.3
2016-May-28 04:01 128 0 gusting 1 13.3
2016-May-28 03:56 13.3
2016-May-28 03:51 13.9
2016-May-28 03:46 13.9
2016-May-28 03:41 118 1 gusting 3 13.9
2016-May-28 03:36 106 3 gusting 3 13.9
2016-May-28 03:31 098 0 gusting 2 13.9
2016-May-28 03:26 13.9
2016-May-28 03:21 13.9
2016-May-28 03:16 13.9
2016-May-28 03:11 137 0 gusting 3 13.9
2016-May-28 03:06 13.9
2016-May-28 03:01 098 2 gusting 4 14.4
2016-May-28 02:56 14.4
2016-May-28 02:51 144 1 gusting 3 14.4
2016-May-28 02:41 124 0 gusting 5 14.4
2016-May-28 02:36 134 1 gusting 5 14.4
2016-May-28 02:31 14.4
2016-May-28 02:26 14.4
2016-May-28 02:21 13.9
2016-May-28 02:16 205 3 gusting 4 14.4
2016-May-28 02:06 135 0 gusting 1 15.0
2016-May-28 02:01 135 0 gusting 1 15.0
2016-May-28 01:56 15.0
2016-May-28 01:51 339 0 gusting 1 15.0
2016-May-28 01:46 15.0
2016-May-28 01:36 045 0 gusting 1 15.0
2016-May-28 01:31 15.0
2016-May-28 01:26 14.4
2016-May-28 01:21 15.0
2016-May-28 01:16 15.0
2016-May-28 01:11 15.0
2016-May-28 01:06 15.0
2016-May-28 01:01 15.6